SCP
0 0 0 0 -0 -0 -0 -0 -0 0 0 -0 1 1 0 0 0 0 1 1 1 0 0 0 0 1 0 0 0 0 0 0 0 0 0 0 0 0 0 0 0 0 0
0 0 0 0 0 0 -0 -0 -0 0 0 0 1 1 0 0 0 0 0 2 1 1 0 0 0 0 0 0 0 0 0 0 0 0 0 0 0 0 0 0 0 0 0
0 0 0 0 0 0 -0 -0 -0 0 0 0 0 0 0 0 0 0 0 1 2 1 0 1 0 0 0 1 1 0 0 0 0 0 0 0 0 0 0 0 0 0 0
0 0 0 0 0 0 0 -0 0 0 0 0 0 0 0 0 0 0 0 0 1 2 1 1 1 0 0 1 1 0 0 0 0 0 0 0 0 0 0 0 0 0 0
0 0 0 0 0 0 0 -0 0 0 0 0 0 0 0 0 0 0 0 1 2 3 2 1 2 1 1 1 0 0 0 0 0 0 0 0 0 0 -0 0 0 0 0
0 0 0 0 0 0 0 -0 0 0 0 0 0 0 0 0 0 0 0 0 3 2 2 2 1 1 1 1 0 0 0 0 0 0 0 0 0 0 0 0 0 0 0
0 0 0 0 0 0 0 -0 0 0 0 0 0 0 -0 0 0 0 0 0 0 0 1 1 1 1 1 0 0 0 0 -0 -0 0 0 0 0 -0 -0 0 0 0 0
0 0 0 0 0 0 0 0 0 0 0 0 0 0 0 0 0 0 0 0 0 0 0 1 1 1 0 0 0 0 0 0 0 0 0 0 0 -0 -0 0 0 0 0
0 0 0 0 0 0 0 0 0 0 0 0 0 0 0 0 0 0 0 0 0 0 0 0 1 1 0 0 0 0 0 0 0 0 0 0 -0 -0 0 0 0 0 0
0 0 0 0 0 0 0 0 0 0 0 0 0 0 0 0 0 0 0 0 0 0 0 0 0 0 0 0 0 0 0 0 0 0 0 0 0 0 0 0 0 0 0
0 0 0 0 0 0 0 0 0 0 0 0 0 0 0 0 0 0 0 0 0 0 -0 0 0 0 0 0 0 0 0 0 0 0 0 0 0 0 0 0 0 0 0
0 0 0 0 0 0 0 0 0 0 0 0 0 0 0 0 0 0 0 0 0 -0 0 -0 0 0 0 0 0 0 0 0 0 0 0 0 0 0 0 0 0 0 0
0 0 0 0 0 -0 0 0 0 0 0 0 0 0 0 0 0 0 0 0 -0 0 0 0 0 0 0 0 0 0 0 0 0 0 0 0 0 0 0 0 0 0 0
0 0 0 0 0 0 0 0 0 0 0 0 0 0 0 0 0 0 0 0 0 0 0 0 0 0 0 0 0 0 0 0 0 0 0 0 0 0 0 0 0 0 0
0 0 0 0 0 -0 0 -0 0 -0 -0 0 0 0 0 0 -0 -0 0 0 0 0 0 0 0 0 0 0 0 0 0 0 0 0 0 0 0 0 0 0 0 0 0
0 0 0 -0 -0 -0 -0 0 0 0 0 0 0 0 0 0 -0 -0 0 -0 -0 0 0 0 0 0 0 0 0 0 0 0 0 0 0 0 0 0 0 0 0 0 0
0 0 0 0 -0 -0 -0 0 0 0 0 0 0 0 0 0 0 0 0 0 0 0 0 0 0 0 0 0 0 0 0 0 0 0 0 0 0 0 0 0 0 0 0
0 0 0 0 -0 -0 -0 -0 -0 0 0 0 0 0 -0 -0 0 0 0 0 0 0 0 0 0 0 0 0 0 0 0 0 0 0 0 0 0 0 0 0 0 0 0
0 0 0 0 0 -0 -0 -0 0 0 0 0 0 0 0 0 0 0 0 0 0 0 0 0 0 0 0 0 0 0 0 0 0 0 0 0 0 0 0 0 0 0 0
0 0 0 0 0 -0 -0 -0 0 0 0 0 0 0 0 0 0 0 0 0 0 0 0 0 0 0 0 0 0 0 0 0 0 0 0 0 0 0 0 0 0 0 0
0 -0 0 0 0 -0 0 0 0 0 0 0 0 0 0 0 0 0 0 0 0 0 0 0 0 0 0 0 0 0 0 0 0 0 0 0 0 0 0 0 0 0 0
0 -0 -0 -0 -0 -0 -0 0 -0 0 0 0 0 0 0 0 0 0 0 0 0 0 0 0 0 0 0 0 0 0 0 0 0 0 0 0 0 0 0 0 0 0 0
-0 -0 -0 -0 -0 -0 0 0 0 0 0 0 0 0 0 0 0 0 0 0 0 0 0 0 0 0 0 0 0 0 0 0 0 0 0 0 0 0 0 0 0 0 0
-0 -0 -0 0 0 -0 -0 -0 -0 0 0 0 -0 0 0 0 0 0 0 0 0 0 0 0 0 0 0 0 0 0 0 0 0 0 0 0 0 0 0 0 0 0 0
-0 -0 -0 -0 0 -0 -0 -0 -0 -0 -0 0 -0 -0 -0 0 0 0 0 0 0 0 0 0 0 0 0 0 0 0 0 0 0 0 0 0 0 0 0 0 0 0 0
-0 -0 0 0 0 0 0 -0 -0 -0 -0 0 0 0 0 -0 -0 0 0 0 0 0 0 0 0 0 0 0 0 0 0 0 0 0 0 0 0 0 0 0 0 0 0
Wind_Speed_500mb
74 72 69 70 73 70 73 76 75 84 77 68 55 73 78 92 112 91 110 115 115 105 100 115 95 88 78 88 77 66 62 68 64 57 60 50 48 43 41 33 24 15 17
65 63 72 72 71 65 65 65 68 70 71 69 48 68 74 108 116 128 94 124 123 115 107 113 107 92 85 85 81 73 61 70 70 58 57 58 49 45 36 32 27 22 18
63 71 72 72 69 72 64 60 60 62 69 67 39 54 74 91 98 111 112 78 117 121 117 112 114 101 98 76 67 59 62 68 66 49 57 58 51 48 42 36 30 27 22
73 69 72 71 69 71 59 55 50 57 65 60 35 52 75 96 90 38 108 105 128 127 126 111 104 118 108 88 61 63 58 61 57 50 49 57 55 50 47 47 43 34 28
69 71 75 68 66 67 57 50 44 51 62 56 38 47 50 98 102 80 21 131 131 116 109 101 109 107 116 97 81 62 57 61 59 60 63 61 63 57 62 57 42 33 31
74 74 73 68 66 64 60 50 44 45 57 55 42 36 71 49 86 107 46 55 121 109 103 96 91 90 93 98 96 83 70 65 64 67 64 60 58 61 66 59 53 51 44
75 75 72 69 66 67 67 54 44 42 45 43 40 34 27 55 53 49 81 35 111 90 89 82 77 88 78 73 72 71 75 70 64 65 56 53 52 58 63 63 58 54 45
75 78 76 73 71 71 62 54 48 43 43 36 39 36 39 55 61 83 71 68 78 64 65 67 73 74 79 75 70 69 70 67 59 55 49 46 45 50 53 50 54 49 32
77 79 77 73 67 64 64 48 49 45 39 32 32 39 40 46 64 75 82 97 74 80 65 70 63 68 72 75 79 80 72 66 58 53 49 48 42 39 48 60 58 56 52
78 77 76 66 61 65 63 50 49 46 44 37 31 38 50 48 55 51 91 73 79 93 88 77 68 69 71 83 89 79 76 70 62 57 48 45 31 42 50 55 55 63 54
76 74 71 67 67 56 56 44 45 43 43 41 42 37 37 48 47 56 72 78 84 91 97 78 72 72 77 76 83 81 78 68 66 57 63 56 55 56 61 56 54 47 52
71 72 68 66 60 44 38 29 36 44 51 45 40 37 42 49 55 48 79 76 66 85 95 62 74 68 74 69 68 77 66 60 65 69 74 62 64 72 67 62 51 45 40
69 69 59 59 48 27 22 25 34 41 45 33 28 45 45 54 54 43 51 61 64 64 88 67 61 71 65 64 62 62 58 59 65 79 74 73 68 73 69 67 56 60 43
68 63 53 51 50 49 34 22 41 33 39 37 34 51 44 52 42 31 25 46 52 68 57 82 61 58 60 60 54 48 54 58 69 72 77 77 79 73 74 72 65 67 56
64 56 51 49 47 50 50 48 37 40 37 38 46 48 66 47 46 51 46 24 22 79 37 50 63 61 53 54 57 59 57 62 73 76 76 77 77 75 78 73 64 65 64
58 53 48 38 45 43 44 40 38 28 25 29 26 39 33 45 51 40 51 65 64 64 80 77 78 74 72 68 67 64 59 61 75 78 78 80 80 82 81 74 69 68 69
52 45 44 46 42 45 47 37 34 24 14 18 23 24 21 32 24 37 50 51 58 75 89 100 88 76 71 69 72 66 65 68 79 79 80 82 81 83 80 76 73 72 74
46 40 39 41 44 40 40 42 35 32 29 21 19 10 12 17 22 18 28 47 62 64 73 76 67 64 70 70 70 68 62 72 80 79 85 86 87 84 82 78 75 77 76
41 41 38 38 40 42 42 40 38 33 30 26 13 8 13 11 14 23 26 29 44 50 47 48 49 63 67 67 67 66 67 77 87 89 86 88 88 83 80 71 72 74 71
39 39 38 38 39 41 40 41 43 43 35 26 21 13 5 11 16 17 19 22 23 32 41 45 53 51 53 56 58 60 71 82 90 86 85 82 84 77 72 75 79 74 65
40 39 39 41 42 41 40 40 39 39 41 37 26 19 11 6 12 24 24 26 25 25 24 34 44 45 49 46 54 53 61 78 89 88 90 83 77 77 76 76 78 70 70
39 44 46 46 44 43 45 45 44 42 39 37 33 22 11 7 10 15 20 22 26 30 29 27 30 32 36 39 45 50 56 77 90 92 90 87 78 72 73 79 82 85 76
38 37 43 47 47 50 53 54 53 50 45 40 35 30 23 15 11 10 12 17 20 22 26 26 25 30 34 39 44 49 54 64 84 86 85 85 76 74 70 81 88 89 83
51 47 47 49 50 52 56 60 58 54 49 41 36 32 30 24 18 16 14 13 14 17 19 21 25 27 33 37 39 45 48 53 72 84 82 81 86 86 74 83 89 81 76
50 55 57 54 57 63 63 58 54 55 51 44 40 37 35 31 27 22 17 12 11 12 15 18 21 22 21 27 32 37 43 57 75 85 85 86 87 79 76 82 78 73 73
44 45 48 51 53 57 63 64 54 53 47 46 42 41 40 39 34 27 22 17 14 14 13 12 12 14 16 16 24 36 49 62 75 74 79 83 82 64 67 68 61 62 57
Wind_Direction_500mb
314 314 312 309 306 292 282 286 299 302 300 279 261 245 242 217 206 213 215 215 219 219 219 211 209 209 212 214 216 213 217 221 215 196 211 206 201 206 204 203 207 198 187
319 316 315 314 311 302 291 286 295 302 304 307 259 244 240 214 206 209 218 211 218 217 218 213 206 205 205 210 213 214 219 214 217 193 190 192 201 208 213 200 199 182 176
315 318 317 317 313 309 295 287 292 303 307 310 265 252 231 226 215 219 222 204 220 220 215 215 210 204 208 204 201 197 197 202 207 198 187 187 194 202 197 196 192 181 184
315 320 320 321 316 314 301 294 292 302 312 317 279 248 222 208 197 225 229 223 215 218 217 212 211 207 209 205 193 200 202 204 188 191 189 185 194 192 196 200 191 189 194
320 324 321 320 321 318 304 295 296 304 317 315 291 232 226 217 227 225 293 223 212 206 210 206 210 210 211 208 202 202 202 209 188 190 184 184 189 191 197 200 201 186 188
328 326 324 321 314 314 309 292 295 298 312 308 298 244 226 226 220 214 218 259 193 200 202 205 209 211 215 215 219 220 213 205 202 198 195 199 201 201 198 201 192 187 184
330 328 326 323 318 312 307 284 286 284 302 309 301 238 235 226 209 209 203 264 180 189 195 196 203 209 209 207 212 216 221 221 224 231 221 218 220 217 205 197 198 204 194
331 330 327 325 315 312 302 283 275 282 288 302 300 243 225 222 213 202 203 208 186 192 192 196 203 209 210 208 207 209 216 223 223 228 235 238 239 221 210 210 195 196 188
334 330 327 325 319 316 308 290 266 276 282 297 289 262 247 217 216 195 194 180 187 207 211 210 207 214 210 205 204 203 209 213 215 222 230 228 219 215 201 194 189 185 182
337 333 330 326 318 315 304 294 258 272 280 293 284 252 243 230 206 193 188 206 190 197 211 204 211 208 206 207 208 204 207 207 208 207 206 203 200 188 195 194 190 186 185
341 337 335 332 326 313 294 286 257 271 281 283 293 241 226 211 195 209 204 206 204 201 201 208 210 209 211 208 209 209 208 206 202 206 203 198 180 181 184 193 199 201 185
344 347 345 342 339 322 296 269 261 278 291 298 297 227 220 198 191 204 205 209 217 206 198 217 214 208 204 205 203 207 208 207 204 202 199 190 188 180 185 186 193 189 203
355 356 355 352 14 339 335 319 311 296 318 315 243 205 194 185 192 206 208 218 213 205 216 203 218 199 203 191 194 197 199 203 205 199 199 192 186 182 184 187 187 193 195
4 360 0 0 21 30 23 357 38 41 17 17 117 169 177 169 155 143 181 192 199 195 182 195 218 197 195 189 189 194 199 207 210 202 194 187 182 185 188 188 188 192 197
5 5 1 9 10 31 47 39 49 52 32 25 48 142 154 149 158 163 157 158 234 188 175 158 202 201 191 186 191 195 200 201 201 199 188 183 187 190 189 189 196 194 193
3 6 6 6 1 15 33 38 56 56 24 29 66 85 127 182 151 151 162 142 151 161 166 191 203 196 197 192 191 193 199 197 198 192 189 186 191 192 189 190 198 197 192
6 3 6 8 1 4 22 23 19 32 12 29 55 79 104 109 119 178 187 185 185 183 192 205 203 193 194 195 195 197 193 195 194 193 186 191 196 195 193 190 195 198 192
13 11 12 12 11 8 12 28 23 17 19 32 75 114 107 112 108 135 161 173 189 197 202 201 197 194 194 195 199 198 194 194 192 192 193 195 195 195 194 193 195 197 191
21 22 23 22 24 21 18 21 32 29 24 22 40 83 139 145 133 136 152 163 181 182 187 187 188 190 193 195 199 199 201 196 190 192 195 194 195 195 195 197 197 198 195
22 21 25 29 27 23 24 27 29 34 33 26 24 31 59 141 158 164 161 170 181 194 190 190 190 189 190 195 196 200 204 199 193 193 199 199 197 195 195 194 189 185 188
26 27 29 37 34 34 36 39 38 31 32 33 27 27 28 125 162 180 181 183 188 194 190 192 198 190 190 193 198 201 207 203 196 197 199 198 194 188 185 185 188 185 184
36 32 40 42 41 43 44 46 47 44 40 36 35 34 32 117 159 181 193 188 191 195 195 192 193 199 203 206 206 207 206 205 199 200 197 191 185 183 183 185 192 189 183
42 47 41 47 50 49 49 46 45 44 44 41 36 43 53 70 119 155 173 186 190 190 196 196 196 198 201 206 210 211 210 209 207 204 201 190 186 176 191 195 199 185 181
56 55 52 52 54 56 51 48 47 46 46 49 55 58 64 73 90 112 130 148 168 175 179 184 189 201 208 208 210 215 214 213 212 206 200 192 183 184 189 195 188 185 183
59 54 54 55 57 60 59 54 50 49 48 48 55 61 69 75 80 90 99 112 128 141 155 165 171 174 193 203 207 217 220 216 207 199 194 185 183 188 184 182 182 182 174
57 55 53 52 55 55 52 49 54 56 54 51 55 61 66 71 76 80 90 99 106 114 123 141 162 177 187 189 206 215 218 210 199 190 184 183 180 179 177 177 178 180 180
Wind_Speed_850mb
74 72 69 70 73 70 73 76 75 84 77 68 55 73 78 92 112 91 110 115 115 105 100 115 95 88 78 88 77 66 62 68 64 57 60 50 48 43 41 33 24 15 17
65 63 72 72 71 65 65 65 68 70 71 69 48 68 74 108 116 128 94 124 123 115 107 113 107 92 85 85 81 73 61 70 70 58 57 58 49 45 36 32 27 22 18
63 71 72 72 69 72 64 60 60 62 69 67 39 54 74 91 98 111 112 78 117 121 117 112 114 101 98 76 67 59 62 68 66 49 57 58 51 48 42 36 30 27 22
73 69 72 71 69 71 59 55 50 57 65 60 35 52 75 96 90 38 108 105 128 127 126 111 104 118 108 88 61 63 58 61 57 50 49 57 55 50 47 47 43 34 28
69 71 75 68 66 67 57 50 44 51 62 56 38 47 50 98 102 80 21 131 131 116 109 101 109 107 116 97 81 62 57 61 59 60 63 61 63 57 62 57 42 33 31
74 74 73 68 66 64 60 50 44 45 57 55 42 36 71 49 86 107 46 55 121 109 103 96 91 90 93 98 96 83 70 65 64 67 64 60 58 61 66 59 53 51 44
75 75 72 69 66 67 67 54 44 42 45 43 40 34 27 55 53 49 81 35 111 90 89 82 77 88 78 73 72 71 75 70 64 65 56 53 52 58 63 63 58 54 45
75 78 76 73 71 71 62 54 48 43 43 36 39 36 39 55 61 83 71 68 78 64 65 67 73 74 79 75 70 69 70 67 59 55 49 46 45 50 53 50 54 49 32
77 79 77 73 67 64 64 48 49 45 39 32 32 39 40 46 64 75 82 97 74 80 65 70 63 68 72 75 79 80 72 66 58 53 49 48 42 39 48 60 58 56 52
78 77 76 66 61 65 63 50 49 46 44 37 31 38 50 48 55 51 91 73 79 93 88 77 68 69 71 83 89 79 76 70 62 57 48 45 31 42 50 55 55 63 54
76 74 71 67 67 56 56 44 45 43 43 41 42 37 37 48 47 56 72 78 84 91 97 78 72 72 77 76 83 81 78 68 66 57 63 56 55 56 61 56 54 47 52
71 72 68 66 60 44 38 29 36 44 51 45 40 37 42 49 55 48 79 76 66 85 95 62 74 68 74 69 68 77 66 60 65 69 74 62 64 72 67 62 51 45 40
69 69 59 59 48 27 22 25 34 41 45 33 28 45 45 54 54 43 51 61 64 64 88 67 61 71 65 64 62 62 58 59 65 79 74 73 68 73 69 67 56 60 43
68 63 53 51 50 49 34 22 41 33 39 37 34 51 44 52 42 31 25 46 52 68 57 82 61 58 60 60 54 48 54 58 69 72 77 77 79 73 74 72 65 67 56
64 56 51 49 47 50 50 48 37 40 37 38 46 48 66 47 46 51 46 24 22 79 37 50 63 61 53 54 57 59 57 62 73 76 76 77 77 75 78 73 64 65 64
58 53 48 38 45 43 44 40 38 28 25 29 26 39 33 45 51 40 51 65 64 64 80 77 78 74 72 68 67 64 59 61 75 78 78 80 80 82 81 74 69 68 69
52 45 44 46 42 45 47 37 34 24 14 18 23 24 21 32 24 37 50 51 58 75 89 100 88 76 71 69 72 66 65 68 79 79 80 82 81 83 80 76 73 72 74
46 40 39 41 44 40 40 42 35 32 29 21 19 10 12 17 22 18 28 47 62 64 73 76 67 64 70 70 70 68 62 72 80 79 85 86 87 84 82 78 75 77 76
41 41 38 38 40 42 42 40 38 33 30 26 13 8 13 11 14 23 26 29 44 50 47 48 49 63 67 67 67 66 67 77 87 89 86 88 88 83 80 71 72 74 71
39 39 38 38 39 41 40 41 43 43 35 26 21 13 5 11 16 17 19 22 23 32 41 45 53 51 53 56 58 60 71 82 90 86 85 82 84 77 72 75 79 74 65
40 39 39 41 42 41 40 40 39 39 41 37 26 19 11 6 12 24 24 26 25 25 24 34 44 45 49 46 54 53 61 78 89 88 90 83 77 77 76 76 78 70 70
39 44 46 46 44 43 45 45 44 42 39 37 33 22 11 7 10 15 20 22 26 30 29 27 30 32 36 39 45 50 56 77 90 92 90 87 78 72 73 79 82 85 76
38 37 43 47 47 50 53 54 53 50 45 40 35 30 23 15 11 10 12 17 20 22 26 26 25 30 34 39 44 49 54 64 84 86 85 85 76 74 70 81 88 89 83
51 47 47 49 50 52 56 60 58 54 49 41 36 32 30 24 18 16 14 13 14 17 19 21 25 27 33 37 39 45 48 53 72 84 82 81 86 86 74 83 89 81 76
50 55 57 54 57 63 63 58 54 55 51 44 40 37 35 31 27 22 17 12 11 12 15 18 21 22 21 27 32 37 43 57 75 85 85 86 87 79 76 82 78 73 73
44 45 48 51 53 57 63 64 54 53 47 46 42 41 40 39 34 27 22 17 14 14 13 12 12 14 16 16 24 36 49 62 75 74 79 83 82 64 67 68 61 62 57
Wind_Direction_850mb
314 314 312 309 306 292 282 286 299 302 300 279 261 245 242 217 206 213 215 215 219 219 219 211 209 209 212 214 216 213 217 221 215 196 211 206 201 206 204 203 207 198 187
319 316 315 314 311 302 291 286 295 302 304 307 259 244 240 214 206 209 218 211 218 217 218 213 206 205 205 210 213 214 219 214 217 193 190 192 201 208 213 200 199 182 176
315 318 317 317 313 309 295 287 292 303 307 310 265 252 231 226 215 219 222 204 220 220 215 215 210 204 208 204 201 197 197 202 207 198 187 187 194 202 197 196 192 181 184
315 320 320 321 316 314 301 294 292 302 312 317 279 248 222 208 197 225 229 223 215 218 217 212 211 207 209 205 193 200 202 204 188 191 189 185 194 192 196 200 191 189 194
320 324 321 320 321 318 304 295 296 304 317 315 291 232 226 217 227 225 293 223 212 206 210 206 210 210 211 208 202 202 202 209 188 190 184 184 189 191 197 200 201 186 188
328 326 324 321 314 314 309 292 295 298 312 308 298 244 226 226 220 214 218 259 193 200 202 205 209 211 215 215 219 220 213 205 202 198 195 199 201 201 198 201 192 187 184
330 328 326 323 318 312 307 284 286 284 302 309 301 238 235 226 209 209 203 264 180 189 195 196 203 209 209 207 212 216 221 221 224 231 221 218 220 217 205 197 198 204 194
331 330 327 325 315 312 302 283 275 282 288 302 300 243 225 222 213 202 203 208 186 192 192 196 203 209 210 208 207 209 216 223 223 228 235 238 239 221 210 210 195 196 188
334 330 327 325 319 316 308 290 266 276 282 297 289 262 247 217 216 195 194 180 187 207 211 210 207 214 210 205 204 203 209 213 215 222 230 228 219 215 201 194 189 185 182
337 333 330 326 318 315 304 294 258 272 280 293 284 252 243 230 206 193 188 206 190 197 211 204 211 208 206 207 208 204 207 207 208 207 206 203 200 188 195 194 190 186 185
341 337 335 332 326 313 294 286 257 271 281 283 293 241 226 211 195 209 204 206 204 201 201 208 210 209 211 208 209 209 208 206 202 206 203 198 180 181 184 193 199 201 185
344 347 345 342 339 322 296 269 261 278 291 298 297 227 220 198 191 204 205 209 217 206 198 217 214 208 204 205 203 207 208 207 204 202 199 190 188 180 185 186 193 189 203
355 356 355 352 14 339 335 319 311 296 318 315 243 205 194 185 192 206 208 218 213 205 216 203 218 199 203 191 194 197 199 203 205 199 199 192 186 182 184 187 187 193 195
4 360 0 0 21 30 23 357 38 41 17 17 117 169 177 169 155 143 181 192 199 195 182 195 218 197 195 189 189 194 199 207 210 202 194 187 182 185 188 188 188 192 197
5 5 1 9 10 31 47 39 49 52 32 25 48 142 154 149 158 163 157 158 234 188 175 158 202 201 191 186 191 195 200 201 201 199 188 183 187 190 189 189 196 194 193
3 6 6 6 1 15 33 38 56 56 24 29 66 85 127 182 151 151 162 142 151 161 166 191 203 196 197 192 191 193 199 197 198 192 189 186 191 192 189 190 198 197 192
6 3 6 8 1 4 22 23 19 32 12 29 55 79 104 109 119 178 187 185 185 183 192 205 203 193 194 195 195 197 193 195 194 193 186 191 196 195 193 190 195 198 192
13 11 12 12 11 8 12 28 23 17 19 32 75 114 107 112 108 135 161 173 189 197 202 201 197 194 194 195 199 198 194 194 192 192 193 195 195 195 194 193 195 197 191
21 22 23 22 24 21 18 21 32 29 24 22 40 83 139 145 133 136 152 163 181 182 187 187 188 190 193 195 199 199 201 196 190 192 195 194 195 195 195 197 197 198 195
22 21 25 29 27 23 24 27 29 34 33 26 24 31 59 141 158 164 161 170 181 194 190 190 190 189 190 195 196 200 204 199 193 193 199 199 197 195 195 194 189 185 188
26 27 29 37 34 34 36 39 38 31 32 33 27 27 28 125 162 180 181 183 188 194 190 192 198 190 190 193 198 201 207 203 196 197 199 198 194 188 185 185 188 185 184
36 32 40 42 41 43 44 46 47 44 40 36 35 34 32 117 159 181 193 188 191 195 195 192 193 199 203 206 206 207 206 205 199 200 197 191 185 183 183 185 192 189 183
42 47 41 47 50 49 49 46 45 44 44 41 36 43 53 70 119 155 173 186 190 190 196 196 196 198 201 206 210 211 210 209 207 204 201 190 186 176 191 195 199 185 181
56 55 52 52 54 56 51 48 47 46 46 49 55 58 64 73 90 112 130 148 168 175 179 184 189 201 208 208 210 215 214 213 212 206 200 192 183 184 189 195 188 185 183
59 54 54 55 57 60 59 54 50 49 48 48 55 61 69 75 80 90 99 112 128 141 155 165 171 174 193 203 207 217 220 216 207 199 194 185 183 188 184 182 182 182 174
57 55 53 52 55 55 52 49 54 56 54 51 55 61 66 71 76 80 90 99 106 114 123 141 162 177 187 189 206 215 218 210 199 190 184 183 180 179 177 177 178 180 180